Location: Gleizolles
(44.4833°N, 6.7667°E)
Time: 19:25:54
(UTC+00:00)

Meteor 1-16 Rocket - Pass Details

Date: 09 April 2020
Orbit: 790 x 907 km, 81.2° (Epoch: 31 May)

Event Time Altitude Azimuth Distance (km) Brightness Sun altitude
Rises 18:29:44 0° 177° (S) 3,305 7.1 -4.1°
Reaches altitude 10° 18:32:06 10° 174° (S) 2,392 6.3 -4.5°
Maximum altitude 18:37:24 59° 96° (E) 951 4.2 -5.4°
Drops below altitude 10° 18:42:54 10° 17° (NNE) 2,482 6.7 -6.4°
Sets 18:45:24 0° 14° (NNE) 3,441 7.4 -6.8°
